Regional Weather Roundup
Issued by NWS Midland/Odessa, TX

Home | Current Version | Previous Version | Text Only | Print | Product List | Glossary On
Versions: 1 2 3 4 5 6 7 8 9 10 11 12 13 14 15 16 17 18 19 20 21 22 23 24 25 26 27 28 29 30 31 32 33 34 35 36 37 38 39 40 41 42 43 44 45 46 47 48 49 50
000
ASUS44 KMAF 202310
RWRMAF
MIDLAND AREA WEATHER ROUNDUP
NATIONAL WEATHER SERVICE MIDLAND TX
600 PM CDT MON OCT 20 2014

...IN SOUTHWEST TEXAS AND SOUTHEAST NEW MEXICO...

CITY           SKY/WX    TMP DP  RH WIND       PRES   REMARKS
ALPINE         CLOUDY    61  55  82 E6        30.15S
ANDREWS        FAIR      72  53  50 SE10G16   30.05F
ARTESIA        NOT AVBL
BIG SPRING     MOSUNNY   79  52  38 E9        30.05S
CARLSBAD       HVY RAIN  62  58  86 SE23G32   30.06R VSB 3/4
DRYDEN           N/A     74  61  63 SE12      29.99S
FORT STOCKTON  CLOUDY    68  61  78 SE8       30.04F
GUAD PASS      CLOUDY    59  54  83 E13       30.14R
HOBBS          MOSUNNY   72  52  49 SE15      30.07S
MARFA          CLOUDY    61  55  82 NE13      30.11S
MIDLAND AIRPK  CLOUDY    76  51  41 E8        30.04F
MIDLAND INTL   CLOUDY    76  53  44 E13       30.03F
ODESSA         CLOUDY    74  51  44 SE12      30.04F
PECOS          LGT RAIN  63  61  93 NE5       30.03F
PRESIDIO       FAIR      71  60  68 N13       29.97F
SEMINOLE       PTSUNNY   73  51  46 SE14      30.07S
SNYDER         MOSUNNY   77  55  45 SE7       30.04S
WINK           LGT RAIN  67  64  90 SW5       30.03R
$$
...OTHER STATIONS IN TEXAS...

CITY           SKY/WX    TMP DP  RH WIND       PRES   REMARKS
ABILENE        MOSUNNY   79  53  40 SE8       30.02S
AMARILLO       SUNNY     77  52  41 NE6       30.07S
AUSTIN         PTSUNNY   77  59  53 E8        29.99S
BROWNSVILLE    MOSUNNY   83  69  62 NE9       29.89R
CORPUS CHRISTI PTSUNNY   74  70  87 N7        29.95S
DALLAS FTW     MOCLDY    80  59  48 SE6       30.00S
DEL RIO        PTSUNNY   79  63  57 S7        29.96S
EL PASO        PTSUNNY   72  51  47 SE10      30.00F
HOUSTON INT    PTCLDY    78  58  49 NE6       29.99S
LUBBOCK        MOSUNNY   74  53  48 SE10      30.06S
SAN ANGELO     MOSUNNY   80  52  37 E12       30.01S
SAN ANTONIO    PTSUNNY   81  58  45 E12       29.98S
WACO           CLEAR     79  58  48 E5        30.00S
WICHITA FALLS  NOT AVBL
$$
...OTHER LOCATIONS IN NEW MEXICO...

CITY           SKY/WX    TMP DP  RH WIND       PRES   REMARKS
ALAMAGORDO     NOT AVBL
ALBUQUERQUE    PTSUNNY   60  48  64 NW5       30.15F THUNDER
CANNON AFB     PTSUNNY   70  52  51 E8        30.10S
CLOVIS         PTSUNNY   70  48  46 SE8       30.12R
HOLLOMAN AFB   CLOUDY    62  57  83 S2        30.05S
ROSWELL        PTSUNNY   71  57  61 S9        30.07R
RUIDOSO        PTSUNNY   57  48  72 SE12G18   30.21S HAZE
SANTA FE       MOSUNNY   66  38  35 SW9       30.16R
TRUTH OR CONSE MOSUNNY   70  46  42 CALM      30.06F
TUCUMCARI      MOSUNNY   71  50  47 S14G21    30.07R
$$


USA.gov is the U.S. government's official web portal to all federal, state and local government web resources and services.